Regional Weather Roundup
Issued by NWS Little Rock, AR

Home | Current Version | Previous Version | Graphics & Text | Print | Product List | Glossary On
Versions: 1 2 3 4 5 6 7 8 9 10 11 12 13 14 15 16 17 18 19 20 21 22 23 24 25 26
000
ASUS44 KLZK 280905
RWRLZK

WEATHER ROUNDUP FOR ARKANSAS
NATIONAL WEATHER SERVICE LITTLE ROCK AR
400 AM CDT THU APR 28 2016

NOTE: "FAIR" INDICATES FEW OR NO CLOUDS BELOW 12,000 FEET WITH NO
SIGNIFICANT WEATHER AND/OR OBSTRUCTIONS TO VISIBILITY.

ARZ001-003-010-029-281000-
NORTHWEST ARKANSAS

CITY           SKY/WX    TMP DP  RH WIND       PRES   REMARKS
FAYETTEVILLE   CLEAR     48  48 100 CALM      29.85R
FORT SMITH     CLEAR     56  51  84 SW3       29.83R
HARRISON       CLEAR     54  48  80 W6        29.83R
BENTONVILLE    CLEAR    N/A N/A N/A CALM      29.85R
ROGERS         CLEAR     52  48  86 W3        29.85R
SILOAM SPGS    CLEAR     48  39  71 CALM      29.86R
HIGHFILL       CLEAR     52  46  80 NW6       29.84R
$$

ARZ004-005-016-281000-
NORTH CENTRAL ARKANSAS

CITY           SKY/WX    TMP DP  RH WIND       PRES   REMARKS
BATESVILLE     CLEAR     57  52  82 CALM      29.82R
FLIPPIN        CLEAR    N/A N/A N/A W3        29.78R
MTN HOME       CLEAR     53  50  89 CALM      29.80R
$$

ARZ040-041-281000-
WEST CENTRAL ARKANSAS

CITY           SKY/WX    TMP DP  RH WIND       PRES   REMARKS
MENA           CLEAR     52  50  93 CALM      29.83S
MOUNT IDA      CLEAR     54  51  90 CALM      29.81R
$$

ARZ009-017-025-026-028-281000-
NORTHEAST ARKANSAS

CITY           SKY/WX    TMP DP  RH WIND       PRES   REMARKS
CORNING          N/A     63  57  82 CALM      29.79R
JONESBORO      CLEAR     66  57  72 NW7       29.79R
NEWPORT        PTCLDY    62  55  77 NW5       29.81R
WALNUT RIDGE   CLEAR     63  52  67 NW3       29.79R
BLYTHEVILLE    CLEAR     67  64  90 W8        29.77R
$$

ARZ022-023-033-042-044-281000-
CENTRAL ARKANSAS

CITY           SKY/WX    TMP DP  RH WIND       PRES   REMARKS
LITTLE ROCK    CLEAR     67  54  63 NW10      29.80R
N LITTLE ROCK    N/A     63  55  74 N5        29.79R
JACKSONVILLE   CLEAR     62  55  78 W3        29.81R
SEARCY         CLEAR     57  57 100 CALM      29.82R
HOT SPRINGS    CLEAR     59  56  89 CALM      29.82R
RUSSELLVILLE   CLEAR     56  54  93 CALM      29.81R
$$

ARZ036-281000-
EAST ARKANSAS

CITY           SKY/WX    TMP DP  RH WIND       PRES   REMARKS
WEST MEMPHIS   CLEAR     67  65  93 SW6       29.77R
$$

ARZ050-053-066-070-073-281000-
SOUTHWEST ARKANSAS

CITY           SKY/WX    TMP DP  RH WIND       PRES   REMARKS
ARKADELPHIA    FAIR      56  56 100 CALM      29.82R
CAMDEN         CLEAR     57  55  94 CALM      29.81R FOG
TEXARKANA      PTCLDY    60  54  80 CALM      29.82R
EL DORADO      PTCLDY    58  58 100 CALM      29.81R
DE QUEEN       FOG       51  51 100 CALM      29.81R VSB 3/4
$$

ARZ056-057-069-281000-
SOUTHEAST ARKANSAS

CITY           SKY/WX    TMP DP  RH WIND       PRES   REMARKS
PINE BLUFF     CLEAR     62  59  90 W3        29.80R
STUTTGART      CLEAR     63  57  82 W8        29.80R
MONTICELLO     PTCLDY    65  63  93 W5        29.80R

$$






USA.gov is the U.S. government's official web portal to all federal, state and local government web resources and services.